Weather History for KGCC - November, 2012

Change the Weather History Date:

Sunday, November 25, 2012

  Actual Average Record
Temperature  
Mean Temperature 32 °F 28 °F  
Max Temperature 37 °F 39 °F 66 °F (1960)
Min Temperature 26 °F 17 °F -15 °F (1993)
Degree Days  
Heating Degree Days 33 37  
Month to date heating degree days 659 775  
Since 1 July heating degree days 1456 1684  
Cooling Degree Days 0 0  
Month to date cooling degree days 0 0  
Year to date cooling degree days 795 502  
Moisture  
Dew Point 30 °F    
Average Humidity 95    
Maximum Humidity 100    
Minimum Humidity 89    
Precipitation  
Precipitation 0.25 in 0.02 in 0.48 in (1975)
Month to date precipitation 0.47 0.48  
Year to date precipitation 8.94 13.42  
Sea Level Pressure  
Sea Level Pressure 30.00 in    
Wind  
Wind Speed 5 mph (NE)    
Max Wind Speed 14 mph    
Max Gust Speed 15 mph    
Visibility 4 miles    
Events Snow    
T = Trace of Precipitation, MM = Missing Value Source: NWS Daily Summary

Daily Weather History Graph

Daily Weather History Graph

Search for Another Location

Airport or City:

Trip Planner

Search our weather history database for the weather conditions in past years. The results will help you decide how hot, cold, wet, or windy it might be!

Date:

Astronomy

Nov. 25, 2012 Rise Set
Actual Time 7:11 AM MST 4:26 PM MST
Civil Twilight 6:39 AM MST 4:59 PM MST
Nautical Twilight 6:03 AM MST 5:34 PM MST
Astronomical Twilight 5:28 AM MST 6:09 PM MST
Moon 2:48 PM MST (11/25) 4:23 AM MST (11/25)
Length of Visible Light 10h 19m
Length of Day
9h 15m
Waxing Gibbous, 93% of the Moon is Illuminated
Nov 25
Waxing Gibbous
Nov 28
Full
Dec 6
Last Quarter
Dec 13
New
Dec 19
First Quarter

Hourly Weather History & Observations

Time (MST) Temp. Windchill Dew Point Humidity Pressure Visibility Wind Dir Wind Speed Gust Speed Precip Events Conditions
12:53 AM 35.1 °F 32.2 °F 33.1 °F 92% 29.97 in 10.0 mi West 3.5 mph - N/A   Overcast
1:53 AM 36.0 °F 33.3 °F 32.0 °F 86% 29.97 in 10.0 mi West 3.5 mph - N/A   Overcast
2:53 AM 36.0 °F - 32.0 °F 86% 29.96 in 10.0 mi Calm Calm - N/A   Overcast
3:53 AM 35.1 °F - 32.0 °F 89% 29.95 in 10.0 mi Calm Calm - N/A   Overcast
4:53 AM 34.0 °F - 32.0 °F 92% 29.95 in 10.0 mi Calm Calm - N/A   Overcast
5:53 AM 35.1 °F 31.0 °F 32.0 °F 89% 29.96 in 10.0 mi North 4.6 mph - N/A   Overcast
6:53 AM 34.0 °F 31.0 °F 33.1 °F 96% 29.96 in 10.0 mi South 3.5 mph - 0.00 in   Overcast
7:00 AM 33.8 °F 30.8 °F 33.8 °F 100% 29.92 in 10.0 mi South 3.5 mph - 0.01 in   Overcast
7:53 AM 34.0 °F - 34.0 °F 100% 29.97 in 10.0 mi Calm Calm - 0.01 in   Overcast
8:24 AM 33.8 °F 27.7 °F 33.8 °F 100% 29.93 in 4.0 mi SSE 6.9 mph - 0.00 in   Overcast
8:53 AM 34.0 °F 29.8 °F 34.0 °F 100% 29.97 in 4.0 mi South 4.6 mph - 0.01 in Snow Light Snow
9:01 AM 33.8 °F 29.6 °F 33.8 °F 100% 29.93 in 3.0 mi SSE 4.6 mph - 0.00 in Snow Light Snow
9:29 AM 33.8 °F - 33.8 °F 100% 29.93 in 1.8 mi Calm Calm - 0.00 in Snow Light Snow
9:53 AM 33.1 °F - 33.1 °F 100% 29.99 in 1.5 mi Calm Calm - 0.02 in Snow Light Snow
10:16 AM 33.8 °F - 32.0 °F 93% 29.94 in 0.8 mi Calm Calm - 0.01 in Snow Light Snow
10:30 AM 33.8 °F - 33.8 °F 100% 29.94 in 0.8 mi Calm Calm - 0.02 in Snow Light Snow
10:53 AM 33.1 °F - 33.1 °F 100% 30.00 in 0.8 mi Calm Calm - 0.04 in Snow Light Snow
11:16 AM 33.8 °F 29.6 °F 33.8 °F 100% 29.94 in 0.8 mi East 4.6 mph - 0.01 in Snow Light Snow
11:24 AM 33.8 °F 29.6 °F 32.0 °F 93% 29.94 in 1.2 mi ENE 4.6 mph - 0.01 in Snow Light Snow
11:32 AM 33.8 °F 28.6 °F 32.0 °F 93% 29.93 in 1.2 mi ENE 5.8 mph - 0.01 in Snow Light Snow
11:46 AM 33.8 °F 28.6 °F 32.0 °F 93% 29.93 in 2.0 mi ENE 5.8 mph - 0.02 in Snow Light Snow
11:53 AM 33.1 °F 28.7 °F 32.0 °F 96% 29.98 in 2.5 mi ENE 4.6 mph - 0.02 in Snow Light Snow
11:58 AM 33.8 °F 27.7 °F 33.8 °F 100% 29.92 in 4.0 mi ENE 6.9 mph - 0.00 in Snow Light Snow
12:20 PM 33.8 °F 28.6 °F 32.0 °F 93% 29.92 in 4.0 mi ENE 5.8 mph - 0.00 in Snow Light Snow
12:29 PM 33.8 °F 28.6 °F 33.8 °F 100% 29.92 in 2.5 mi ENE 5.8 mph - 0.00 in Snow Light Snow
12:39 PM 33.8 °F 28.6 °F 33.8 °F 100% 29.93 in 1.8 mi East 5.8 mph - 0.00 in Snow Light Snow
12:49 PM 33.8 °F 27.7 °F 32.0 °F 93% 29.92 in 2.0 mi ENE 6.9 mph - 0.00 in Snow Light Snow
12:53 PM 34.0 °F 28.0 °F 32.0 °F 92% 29.98 in 2.5 mi East 6.9 mph - 0.00 in Snow Light Snow
1:05 PM 33.8 °F 28.6 °F 32.0 °F 93% 29.92 in 0.8 mi ENE 5.8 mph - 0.00 in Snow Light Snow
1:14 PM 33.8 °F 28.6 °F 33.8 °F 100% 29.92 in 1.5 mi ENE 5.8 mph - 0.00 in Snow Light Snow
1:17 PM 33.8 °F 28.6 °F 33.8 °F 100% 29.92 in 2.0 mi NE 5.8 mph - 0.01 in Snow Light Snow
1:24 PM 33.8 °F 27.7 °F 33.8 °F 100% 29.93 in 2.0 mi NE 6.9 mph - 0.01 in Snow Light Snow
1:35 PM 33.8 °F 27.7 °F 32.0 °F 93% 29.93 in 2.0 mi NE 6.9 mph - 0.01 in Snow Light Snow
1:53 PM 34.0 °F 27.2 °F 32.0 °F 92% 29.98 in 1.8 mi NE 8.1 mph - 0.01 in Snow Light Snow
2:12 PM 33.8 °F 25.3 °F 32.0 °F 93% 29.93 in 1.8 mi North 11.5 mph - 0.01 in Snow Light Snow
2:20 PM 33.8 °F 27.0 °F 32.0 °F 93% 29.94 in 2.5 mi North 8.1 mph - 0.01 in Snow Light Snow
2:29 PM 33.8 °F 25.3 °F 32.0 °F 93% 29.94 in 4.0 mi North 11.5 mph - 0.01 in Snow Light Snow
2:33 PM 33.8 °F 26.4 °F 30.2 °F 87% 29.94 in 3.0 mi North 9.2 mph - 0.01 in Snow Light Snow
2:53 PM 32.0 °F 26.4 °F 30.0 °F 92% 30.01 in 6.0 mi North 5.8 mph - 0.01 in Snow Light Snow
3:08 PM 33.8 °F 30.8 °F 28.4 °F 81% 29.96 in 10.0 mi NNW 3.5 mph - 0.00 in   Overcast
3:53 PM 32.0 °F 26.4 °F 30.0 °F 92% 30.01 in 10.0 mi North 5.8 mph - 0.00 in   Overcast
4:21 PM 32.0 °F 24.8 °F 30.2 °F 93% 29.98 in 9.0 mi NNW 8.1 mph - N/A   Overcast
4:30 PM 32.0 °F 23.6 °F 30.2 °F 93% 29.98 in 10.0 mi North 10.4 mph - N/A   Overcast
4:53 PM 30.9 °F 21.2 °F 30.0 °F 96% 30.06 in 10.0 mi North 12.7 mph - N/A   Overcast
5:14 PM 30.2 °F 21.9 °F 28.4 °F 93% 30.00 in 1.8 mi NNE 9.2 mph - 0.00 in Snow Light Snow
5:38 PM 30.2 °F 20.2 °F 28.4 °F 93% 30.00 in 2.0 mi NNE 12.7 mph - 0.01 in Snow Light Snow
5:53 PM 28.9 °F 19.2 °F 28.0 °F 96% 30.09 in 2.5 mi North 11.5 mph - 0.01 in Snow Light Snow
6:05 PM 28.4 °F 18.5 °F 28.4 °F 100% 30.02 in 1.8 mi North 11.5 mph - 0.00 in Snow Light Snow
6:20 PM 28.4 °F 19.7 °F 26.6 °F 93% 30.03 in 1.8 mi North 9.2 mph - 0.01 in Snow Light Snow
6:28 PM 28.4 °F 19.1 °F 26.6 °F 93% 30.03 in 1.2 mi North 10.4 mph - 0.01 in Snow Light Snow
6:44 PM 26.6 °F 16.2 °F 26.6 °F 100% 30.04 in 2.0 mi North 11.5 mph - 0.02 in Snow Light Snow
6:53 PM 27.0 °F 16.7 °F 26.1 °F 96% 30.13 in 2.0 mi North 11.5 mph - 0.02 in Snow Light Snow
7:05 PM 26.6 °F 17.5 °F 24.8 °F 93% 30.05 in 1.5 mi North 9.2 mph - 0.01 in Snow Light Snow
7:30 PM 26.6 °F 19.1 °F 26.6 °F 100% 30.06 in 2.5 mi NNE 6.9 mph - 0.01 in Snow Light Snow
7:32 PM 26.6 °F 18.2 °F 26.6 °F 100% 30.06 in 3.0 mi NNE 8.1 mph - 0.01 in Snow Light Snow
7:48 PM 26.6 °F 20.0 °F 26.6 °F 100% 30.07 in 3.0 mi NNE 5.8 mph - 0.01 in Snow Light Snow
7:53 PM 27.0 °F 21.6 °F 26.1 °F 96% 30.15 in 3.0 mi NNE 4.6 mph - 0.01 in Snow Light Snow
8:14 PM 26.6 °F 20.0 °F 26.6 °F 100% 30.08 in 4.0 mi NE 5.8 mph - 0.00 in Snow Light Snow
8:23 PM 26.6 °F 20.0 °F 24.8 °F 93% 30.08 in 1.8 mi NE 5.8 mph - 0.00 in Snow Light Snow
8:31 PM 26.6 °F 20.0 °F 24.8 °F 93% 30.09 in 1.2 mi NE 5.8 mph - 0.01 in Snow Light Snow
8:53 PM 26.1 °F 19.4 °F 25.0 °F 96% 30.18 in 1.5 mi NE 5.8 mph - 0.02 in Snow Light Snow
9:13 PM 26.6 °F 20.0 °F 24.8 °F 93% 30.10 in 1.8 mi ENE 5.8 mph - 0.01 in Snow Light Snow
9:29 PM 26.6 °F 22.6 °F 24.8 °F 93% 30.10 in 1.5 mi ENE 3.5 mph - 0.01 in Snow Light Snow
9:53 PM 26.1 °F - 25.0 °F 96% 30.20 in 1.2 mi Calm Calm - 0.02 in Snow Light Snow
10:02 PM 26.6 °F 22.6 °F 26.6 °F 100% 30.11 in 1.2 mi NE 3.5 mph - 0.00 in Snow Light Snow
10:53 PM 26.1 °F 20.5 °F 25.0 °F 96% 30.22 in 1.5 mi NE 4.6 mph - 0.03 in Snow Light Snow
11:23 PM 26.6 °F 20.0 °F 24.8 °F 93% 30.13 in 2.0 mi NNE 5.8 mph - 0.00 in Snow Light Snow
11:37 PM 26.6 °F 18.2 °F 24.8 °F 93% 30.14 in 1.5 mi NNE 8.1 mph - 0.01 in Snow Light Snow
11:53 PM 26.1 °F 18.4 °F 25.0 °F 96% 30.24 in 1.2 mi North 6.9 mph - 0.01 in Snow Light Snow